Regional Weather Roundup
Issued by NWS Upton, NY

Current Version | Previous Version | Text Only | Print | Product List | Glossary On
Versions: 1 2 3 4 5 6 7 8 9 10 11 12 13 14 15 16 17 18 19 20 21 22 23 24 25 26 27 28 29 30 31 32 33 34 35 36 37 38 39 40 41 42 43 44 45 46 47 48 49 50
000
ASUS41 KOKX 202005
RWROKX

REGIONAL WEATHER ROUNDUP
NATIONAL WEATHER SERVICE NEW YORK NY
400 PM EDT SAT SEP 20 2014

NOTE: "FAIR" INDICATES FEW OR NO CLOUDS BELOW 12,000 FEET WITH NO
SIGNIFICANT WEATHER AND/OR OBSTRUCTIONS TO VISIBILITY.

NYZ071-072-176-178-NJZ106-104-202100-
NEW YORK CITY METRO AREA


CITY           SKY/WX    TMP DP  RH WIND       PRES   REMARKS
CENTRAL PARK   PTSUNNY   72  58  61 VRB6G21   30.20F
LAGUARDIA APRT PTSUNNY   72  59  63 S18       30.17F
KENNEDY INTL   PTSUNNY   74  59  59 S18G24    30.19F
NEWARK/LIBERTY CLOUDY    73  60  63 SE14G20   30.16F
BRNX BOT. GARD   N/A     72  57  60 SE5       30.17F
TETERBORO      PTSUNNY   74  58  57 S9G22     30.15F
$$

NYZ177-179-078>081-202100-
LONG ISLAND NEW YORK

CITY           SKY/WX    TMP DP  RH WIND       PRES   REMARKS
FARMINGDALE    PTSUNNY   73  60  63 S12       30.19F
ISLIP          MOSUNNY   72  58  61 S13       30.17F
SHIRLEY        MOSUNNY   73  57  57 S13       30.20F
WESTHAMPTON    SUNNY     72  57  59 S12       30.21F
MONTAUK POINT    N/A     72  56  57 VRB6      30.22F
$$

NYZ052-065-067-202100-
HUDSON VALLEY

CITY           SKY/WX    TMP DP  RH WIND       PRES   REMARKS
WHITE PLAINS   MOSUNNY   71  56  58 S9        30.17F
NEWBURGH       PTSUNNY   73  59  60 MISG      30.15F
MONTGOMERY     CLOUDY    73  57  57 S10       30.13F
POUGHKEEPSIE   CLOUDY    74  56  53 S8        30.12F
ALBANY         PTSUNNY   73  55  53 S23G33    30.07F
$$

NJZ001-105-106-008-010-013-015-019>022-104-202100-
NEW JERSEY

CITY           SKY/WX    TMP DP  RH WIND       PRES   REMARKS
NEWARK/LIBERTY CLOUDY    73  60  63 SE14G20   30.16F
TETERBORO      PTSUNNY   74  58  57 S9G22     30.15F
CALDWELL       CLOUDY    73  60  63 SE15      30.16F
MORRISTOWN     PTSUNNY   73  59  60 SW10      30.16F
SOMERVILLE     CLOUDY    76  58  53 S7        30.13F
LINDEN         CLOUDY    78  61  55 S13       30.18S
SUSSEX         CLOUDY    75  57  53 VRB6      30.14F
ANDOVER          N/A     72  56  57 VRB6      30.15F
TRENTON        PTSUNNY   76  58  53 S17       30.15S
MILLVILLE      PTSUNNY   76  60  57 SE14      30.15F
ATLANTIC CITY  CLOUDY    74  62  66 SE9       30.16F
WRIGHTSTOWN    MOSUNNY   74  60  63 SE10      30.14F
TOMS RIVER     CLOUDY    73  61  64 S7        30.18F
BELMAR         MOSUNNY   72  57  60 SE9       30.17F
$$

PAZ047>061-062-071-202100-
EASTERN PENNSYLVANIA

CITY           SKY/WX    TMP DP  RH WIND       PRES   REMARKS
PHILADELPHIA   MOSUNNY   78  60  53 S13G20    30.15F
ALLENTOWN      MOSUNNY   77  56  48 S9        30.13F
SCRANTON       CLOUDY    74  56  53 S9G21     30.10F
$$

CTZ002-004>006-009-010-012-RIZ004-006-007-MAZ004-011-015-202100-
SOUTHERN NEW ENGLAND
 IN CT

CITY           SKY/WX    TMP DP  RH WIND       PRES   REMARKS
BRADLEY INTL   CLOUDY    73  54  51 S14G23    30.14F
HARTFORD       CLOUDY    73  56  54 S14G20    30.16F
DANBURY        CLOUDY    69  56  62 S13G18    30.18F
WTRBRY/OXFORD  PTSUNNY   70  55  60 S9G21     30.20F
BRIDGEPORT     CLOUDY    73  57  57 S12       30.19F
MERIDEN        CLOUDY    73  54  51 S15G23    30.18F
NEW HAVEN      PTSUNNY   73  56  54 S12G18    30.20F
CHESTER        MOCLDY    68  55  64 S7        30.21S
GROTON         PTSUNNY   69  57  65 S14       30.19F
WILLIMANTIC    PTSUNNY   70  55  59 S13       30.18F

 IN RI

CITY           SKY/WX    TMP DP  RH WIND       PRES   REMARKS
PROVIDENCE     PTSUNNY   69  51  52 S15       30.20F
BLOCK ISLAND   SUNNY     72  54  53 S14       30.22S
WESTERLY       MOSUNNY   71  52  50 SW12      30.21F

 IN MA

CITY           SKY/WX    TMP DP  RH WIND       PRES   REMARKS
BOSTON         PTSUNNY   71  53  52 SW16      30.16F
WORCESTER      CLOUDY    66  53  63 S10       30.17F
WESTFIELD      CLOUDY    71  55  56 S15G22    30.13F
PROVINCETOWN   SUNNY     68  54  60 S14G22    30.21F
NANTUCKET      SUNNY     67  56  67 SE14      30.22F
$$

ANZ330-335-338-340-345-350-353-355-202100-
COASTAL MARINE OBSERVATIONS


STATION/POSITION TIME  SKY/WX   TEMP    WIND        PRES    VSBY  WAVE
                                AIR SEA DIR/SP/G                  HT/PER
                 (UTC)          (F)     (DEG/KT/KT) (MB)    (MI)  (FT/S)
NY HARB ENTRANCE 2000            70 70  170/ 14/ 16 1022.3          4/ 7
4S FIRE IS       2000               70                N/A           4/ 8
20S FIRE ISLAND  2000            69 69  160/ 10/ 12 1022.6          4/ 4
23SW MTP         2000                                 N/A           3/ 8
HUDSON CANYON    2000            71 72  140/ 14/ 17 1021.8          4/ 9
EXECUTION ROCKS  2000            72 70  180/ 14/ 19   N/A
WESTERN LI SOUND 2000            71     190/ 14/ 17   N/A           1/ 2
CENTRAL LI SOUND 1900            69 70  200/ 12/ 14   N/A           1/ 2
EASTERN LI SOUND 1900            69 69  180/ 12/ 16   N/A
ROBBINS REEF     2000            70     160/ 23/ 26 1020.3
$$


>>>>>>>>>>>>>>>>>>>>>>>>>>>> KEY <<<<<<<<<<<<<<<<<<<<<<<<<<<
>                                                          <
>     SKY/WX - SKY CONDITION/PRESENT WEATHER               <
>     TMP    - TEMPERATURE IN FAHRENHEIT                   <
>     DP     - DEWPOINT IN FAHRENHEIT                      <
>     RH     - RELATIVE HUMIDITY IN PERCENT                <
>     WIND   - DIRECTION AND SPEED IN MPH                  <
>     PRES   - MEAN SEA LEVEL PRESSURE IN INCHES OF HG     <
>     WCI    - WIND CHILL INDEX                            <
>     VSB    - VISIBILITY IN MILES                         <
>     HX     - HEAT INDEX                                  <
>     TC     - TEMPERATURE IN CELSIUS                      <
>     VRB    - VARIABLE WIND DIRECTION                     <
>                                                          <
>>>>>>>>>>>>>>>>>>>>>>>>>>>> KEY <<<<<<<<<<<<<<<<<<<<<<<<<<<




USA.gov is the U.S. government's official web portal to all federal, state and local government web resources and services.